EN

Hourly Weather American Fork

Today, 24 January, Sunday

Time Temperature Precipitation Wind Pressure Humidity
00:00 -2°C° 0 mm 1 mps 636 mmHg 93%
01:00 -2°C° 0 mm 1 mps 636 mmHg 93%
02:00 -3°C° 0 mm 1 mps 636 mmHg 93%
03:00 -3°C° 0 mm 1 mps 636 mmHg 92%
04:00 -3°C° 0 mm 1 mps 636 mmHg 91%
05:00 -3°C° 0 mm 1 mps 635 mmHg 91%
06:00 -4°C° 0 mm 1 mps 635 mmHg 90%
07:00 -4°C° 0 mm 1 mps 635 mmHg 89%
08:00 -4°C° 0 mm 1 mps 635 mmHg 89%
09:00 -3°C° 0 mm 1 mps 635 mmHg 88%
10:00 -1°C° 0 mm 1 mps 635 mmHg 87%
11:00 0°C° 0 mm 1 mps 635 mmHg 87%
12:00 0°C° 0 mm 1 mps 635 mmHg 87%
13:00 +1°C° 0 mm 1 mps 634 mmHg 86%
14:00 +1°C° 0 mm 1 mps 634 mmHg 86%
15:00 +1°C° 0 mm 1 mps 634 mmHg 87%
16:00 0°C° 0 mm 1 mps 633 mmHg 87%
17:00 0°C° 0 mm 1 mps 633 mmHg 88%
18:00 -1°C° 0 mm 1 mps 633 mmHg 88%
19:00 -2°C° 0 mm 1 mps 633 mmHg 89%
20:00 -2°C° 0 mm 1 mps 633 mmHg 89%
21:00 -3°C° 0 mm 1 mps 633 mmHg 89%
22:00 -3°C° 0 mm 1 mps 634 mmHg 88%
23:00 -3°C° 0 mm 1 mps 634 mmHg 87%

Tomorrow, 25 January, Monday

Time Temperature Precipitation Wind Pressure Humidity
00:00 -4°C° 0 mm 1 mps 633 mmHg 87%
01:00 -4°C° 0 mm 1 mps 633 mmHg 87%
02:00 -4°C° 0 mm 1 mps 633 mmHg 87%
03:00 -6°C° 0 mm 2 mps 633 mmHg 87%
04:00 -6°C° 0 mm 2 mps 633 mmHg 87%
05:00 -6°C° 0 mm 2 mps 633 mmHg 87%
06:00 -6°C° 0 mm 2 mps 633 mmHg 87%
07:00 -6°C° 0 mm 2 mps 634 mmHg 86%
08:00 -6°C° 0 mm 2 mps 634 mmHg 86%
09:00 -4°C° 0 mm 2 mps 634 mmHg 84%
10:00 -1°C° 0 mm 1 mps 634 mmHg 83%
11:00 +1°C° 0 mm 1 mps 635 mmHg 81%
12:00 +1°C° 0.1 mm 1 mps 634 mmHg 80%
13:00 +2°C° 0.1 mm 1 mps 634 mmHg 78%
14:00 +3°C° 0.1 mm 1 mps 633 mmHg 76%
15:00 +2°C° 0 mm 1 mps 633 mmHg 77%
16:00 +1°C° 0 mm 1 mps 633 mmHg 77%
17:00 0°C° 0 mm 0 mps 633 mmHg 78%
18:00 0°C° 0 mm 1 mps 633 mmHg 77%
19:00 -1°C° 0 mm 1 mps 632 mmHg 77%
20:00 -1°C° 0 mm 1 mps 632 mmHg 77%
21:00 -3°C° 0 mm 2 mps 632 mmHg 77%
22:00 -4°C° 0 mm 2 mps 632 mmHg 76%
23:00 -4°C° 0 mm 2 mps 632 mmHg 76%

Day after tomorrow, 26 January, Tuesday

Time Temperature Precipitation Wind Pressure Humidity
00:00 -4°C° 0 mm 2 mps 631 mmHg 76%
01:00 -4°C° 0 mm 2 mps 631 mmHg 76%
02:00 -5°C° 0 mm 2 mps 631 mmHg 76%
03:00 -5°C° 0 mm 2 mps 631 mmHg 76%
04:00 -5°C° 0 mm 2 mps 630 mmHg 75%
05:00 -5°C° 0 mm 2 mps 630 mmHg 75%
06:00 -2°C° 0 mm 1 mps 630 mmHg 75%
07:00 -2°C° 0 mm 1 mps 631 mmHg 75%
08:00 -2°C° 0 mm 1 mps 631 mmHg 75%
09:00 -1°C° 0 mm 1 mps 631 mmHg 77%
10:00 0°C° 0 mm 1 mps 632 mmHg 78%
11:00 +1°C° 0 mm 1 mps 632 mmHg 79%
12:00 -1°C° 0.1 mm 2 mps 632 mmHg 80%
13:00 +1°C° 0.1 mm 2 mps 632 mmHg 81%
14:00 0°C° 0.1 mm 3 mps 632 mmHg 82%
15:00 -1°C° 0.1 mm 3 mps 632 mmHg 83%
16:00 -1°C° 0.1 mm 3 mps 632 mmHg 85%
17:00 -1°C° 0.1 mm 3 mps 632 mmHg 86%
18:00 -2°C° 0.2 mm 3 mps 633 mmHg 88%
19:00 -2°C° 0.2 mm 2 mps 634 mmHg 91%
20:00 -2°C° 0.2 mm 2 mps 635 mmHg 93%
21:00 -2°C° 0.2 mm 3 mps 635 mmHg 91%
22:00 -2°C° 0.2 mm 3 mps 635 mmHg 90%
23:00 -2°C° 0.2 mm 3 mps 636 mmHg 89%

27 January, Wednesday

Time Temperature Precipitation Wind Pressure Humidity
00:00 -4°C° 0 mm 3 mps 636 mmHg 86%
01:00 -5°C° 0 mm 4 mps 635 mmHg 83%
02:00 -5°C° 0 mm 4 mps 635 mmHg 80%
03:00 -5°C° 0 mm 4 mps 635 mmHg 79%
04:00 -7°C° 0 mm 4 mps 635 mmHg 77%
05:00 -7°C° 0 mm 4 mps 635 mmHg 75%
06:00 -7°C° 0 mm 4 mps 636 mmHg 75%
07:00 -7°C° 0 mm 4 mps 636 mmHg 74%
08:00 -7°C° 0 mm 4 mps 636 mmHg 73%
09:00 -4°C° 0 mm 4 mps 636 mmHg 72%
10:00 -4°C° 0 mm 5 mps 637 mmHg 70%
11:00 -2°C° 0 mm 5 mps 637 mmHg 69%
12:00 -1°C° 0 mm 5 mps 636 mmHg 69%
13:00 0°C° 0 mm 5 mps 636 mmHg 69%
14:00 +1°C° 0 mm 5 mps 636 mmHg 70%
15:00 0°C° 0.1 mm 5 mps 636 mmHg 76%
16:00 -1°C° 0.1 mm 5 mps 635 mmHg 82%
17:00 -1°C° 0.1 mm 4 mps 635 mmHg 88%
18:00 -2°C° 0.2 mm 4 mps 636 mmHg 89%
19:00 -2°C° 0.2 mm 4 mps 637 mmHg 91%
20:00 -2°C° 0.2 mm 4 mps 637 mmHg 92%
21:00 -2°C° 0.1 mm 4 mps 637 mmHg 91%
22:00 -2°C° 0.1 mm 4 mps 637 mmHg 89%
23:00 -2°C° 0.1 mm 4 mps 637 mmHg 88%

28 January, Thursday

Time Temperature Precipitation Wind Pressure Humidity
00:00 -2°C° 0.2 mm 4 mps 637 mmHg 88%
01:00 -2°C° 0.2 mm 4 mps 637 mmHg 88%
02:00 -2°C° 0.2 mm 4 mps 637 mmHg 88%
03:00 -2°C° 0.2 mm 4 mps 637 mmHg 88%
04:00 -1°C° 0.2 mm 3 mps 637 mmHg 88%
05:00 -1°C° 0.2 mm 3 mps 637 mmHg 88%
06:00 -1°C° 0.2 mm 3 mps 637 mmHg 87%
07:00 -1°C° 0.2 mm 3 mps 637 mmHg 87%
08:00 0°C° 0.2 mm 3 mps 637 mmHg 87%
09:00 0°C° 0.2 mm 3 mps 637 mmHg 86%
10:00 +1°C° 0.2 mm 3 mps 637 mmHg 86%
11:00 +2°C° 0.2 mm 3 mps 638 mmHg 85%

29 January, Friday

Time Temperature Precipitation Wind Pressure Humidity
Show more